Location: Unspecified
(0.0000°N, 0.0000°E)
Time: 08:59:48
(UTC+00:00)

Transit 4B - Pass Details

Date: 16 August 2024
Orbit: 947 x 1097 km, 32.4° (Epoch: 07 September)

Event Time Altitude Azimuth Distance (km) Brightness Sun altitude
Rises 21:07:35 0° 313° (NW) 3,614 12.1 -44.3°
Reaches altitude 10° 21:10:17 10° 318° (NW) 2,660 11.3 -44.9°
Enters shadow 21:11:18 15° 321° (NW) 2,313 10.8 -45.2°
